Time,TemperatureF,DewpointF,PressureIn,WindDirection,WindDirectionDegrees,WindSpeedMPH,WindSpeedGustMPH,Humidity,HourlyPrecipIn,Conditions,Clouds,dailyrainin,SoftwareType,DateUTC
2013-01-01 00:05:00,35.0,34.0,30.24,East,96,0.0,0.0,97,0.00,,,0.00,weatherlink.com 1.10,2013-01-01 08:05:00,
2013-01-01 00:20:00,34.6,34.0,30.23,East,96,0.0,1.0,97,0.00,,,0.00,weatherlink.com 1.10,2013-01-01 08:20:00,
2013-01-01 00:35:00,34.2,33.0,30.23,East,96,1.0,1.0,96,0.00,,,0.00,weatherlink.com 1.10,2013-01-01 08:35:00,
2013-01-01 00:50:00,33.8,33.0,30.23,East,96,0.0,0.0,96,0.00,,,0.00,weatherlink.com 1.10,2013-01-01 08:50:00,
2013-01-01 01:05:00,33.4,32.0,30.24,East,96,0.0,0.0,96,0.00,,,0.00,weatherlink.com 1.10,2013-01-01 09:05:00,
2013-01-01 01:20:00,33.0,32.0,30.23,East,96,0.0,2.0,97,0.00,,,0.00,weatherlink.com 1.10,2013-01-01 09:20:00,
2013-01-01 01:35:00,33.4,33.0,30.24,ENE,72,2.0,2.0,97,0.00,,,0.00,weatherlink.com 1.10,2013-01-01 09:35:00,
2013-01-01 01:50:00,33.8,33.0,30.24,ENE,61,1.0,2.0,97,0.00,,,0.00,weatherlink.com 1.10,2013-01-01 09:50:00,
2013-01-01 02:05:00,33.7,33.0,30.25,ENE,61,0.0,1.0,97,0.00,,,0.00,weatherlink.com 1.10,2013-01-01 10:05:00,
2013-01-01 02:20:00,33.0,32.0,30.25,ENE,61,0.0,1.0,97,0.00,,,0.00,weatherlink.com 1.10,2013-01-01 10:20:00,
2013-01-01 02:35:00,32.8,32.0,30.25,ENE,61,0.0,0.0,97,0.00,,,0.00,weatherlink.com 1.10,2013-01-01 10:35:00,
2013-01-01 02:50:00,32.6,32.0,30.25,ENE,61,0.0,1.0,97,0.00,,,0.00,weatherlink.com 1.10,2013-01-01 10:50:00,
2013-01-01 03:05:00,32.6,32.0,30.25,ENE,61,0.0,0.0,97,0.00,,,0.00,weatherlink.com 1.10,2013-01-01 11:05:00,
2013-01-01 03:20:00,33.2,33.0,30.25,ENE,61,0.0,1.0,98,0.00,,,0.00,weatherlink.com 1.10,2013-01-01 11:20:00,
2013-01-01 03:35:00,33.7,33.0,30.25,ENE,61,0.0,0.0,98,0.00,,,0.00,weatherlink.com 1.10,2013-01-01 11:35:00,
2013-01-01 03:50:00,34.1,34.0,30.25,ENE,61,1.0,2.0,98,0.00,,,0.00,weatherlink.com 1.10,2013-01-01 11:50:00,
2013-01-01 04:05:00,33.7,33.0,30.25,ENE,61,0.0,1.0,98,0.00,,,0.00,weatherlink.com 1.10,2013-01-01 12:05:00,
2013-01-01 04:20:00,33.7,33.0,30.25,ENE,61,0.0,2.0,98,0.00,,,0.00,weatherlink.com 1.10,2013-01-01 12:20:00,
2013-01-01 04:35:00,33.7,33.0,30.25,ENE,61,0.0,0.0,98,0.00,,,0.00,weatherlink.com 1.10,2013-01-01 12:35:00,
2013-01-01 04:50:00,33.3,33.0,30.25,ENE,61,0.0,1.0,97,0.00,,,0.00,weatherlink.com 1.10,2013-01-01 12:50:00,
2013-01-01 05:05:00,33.0,32.0,30.25,ENE,61,0.0,1.0,97,0.00,,,0.00,weatherlink.com 1.10,2013-01-01 13:05:00,
2013-01-01 05:20:00,32.6,32.0,30.25,ENE,61,0.0,0.0,97,0.00,,,0.00,weatherlink.com 1.10,2013-01-01 13:20:00,
2013-01-01 05:35:00,32.5,32.0,30.26,ENE,61,0.0,0.0,97,0.00,,,0.00,weatherlink.com 1.10,2013-01-01 13:35:00,
2013-01-01 05:50:00,32.5,32.0,30.26,ENE,61,0.0,0.0,97,0.00,,,0.00,weatherlink.com 1.10,2013-01-01 13:50:00,
2013-01-01 06:05:00,32.3,32.0,30.27,ENE,61,1.0,2.0,97,0.00,,,0.00,weatherlink.com 1.10,2013-01-01 14:05:00,
2013-01-01 06:20:00,31.9,31.0,30.27,ENE,61,0.0,2.0,97,0.00,,,0.00,weatherlink.com 1.10,2013-01-01 14:20:00,
2013-01-01 06:35:00,31.7,31.0,30.27,ENE,61,0.0,1.0,97,0.00,,,0.00,weatherlink.com 1.10,2013-01-01 14:35:00,
2013-01-01 06:50:00,31.9,31.0,30.27,NE,36,0.0,3.0,97,0.00,,,0.00,weatherlink.com 1.10,2013-01-01 14:50:00,
2013-01-01 07:05:00,31.9,31.0,30.27,SW,234,3.0,3.0,98,0.00,,,0.00,weatherlink.com 1.10,2013-01-01 15:05:00,
2013-01-01 07:20:00,32.0,32.0,30.26,WSW,242,0.0,3.0,98,0.00,,,0.00,weatherlink.com 1.10,2013-01-01 15:20:00,
2013-01-01 07:35:00,31.9,31.0,30.27,North,5,0.0,3.0,98,0.00,,,0.00,weatherlink.com 1.10,2013-01-01 15:35:00,
2013-01-01 07:50:00,31.8,31.0,30.27,North,5,0.0,2.0,97,0.00,,,0.00,weatherlink.com 1.10,2013-01-01 15:50:00,
2013-01-01 08:05:00,32.4,32.0,30.27,NNE,31,2.0,2.0,98,0.00,,,0.00,weatherlink.com 1.10,2013-01-01 16:05:00,
2013-01-01 08:20:00,33.2,33.0,30.27,NNE,31,1.0,2.0,98,0.00,,,0.00,weatherlink.com 1.10,2013-01-01 16:20:00,
2013-01-01 08:35:00,33.4,33.0,30.26,WSW,239,0.0,3.0,98,0.00,,,0.00,weatherlink.com 1.10,2013-01-01 16:35:00,
2013-01-01 08:50:00,33.9,33.0,30.27,North,355,0.0,2.0,98,0.00,,,0.00,weatherlink.com 1.10,2013-01-01 16:50:00,
2013-01-01 09:06:00,34.4,34.0,30.27,North,355,0.0,1.0,98,0.00,,,0.00,weatherlink.com 1.10,2013-01-01 17:06:00,
2013-01-01 09:21:00,35.0,35.0,30.27,SW,235,0.0,3.0,98,0.00,,,0.00,weatherlink.com 1.10,2013-01-01 17:21:00,
2013-01-01 09:36:00,36.1,36.0,30.28,SW,233,0.0,4.0,98,0.00,,,0.00,weatherlink.com 1.10,2013-01-01 17:36:00,
2013-01-01 09:51:00,38.0,38.0,30.28,WSW,247,0.0,3.0,98,0.00,,,0.00,weatherlink.com 1.10,2013-01-01 17:51:00,
2013-01-01 10:06:00,40.1,38.0,30.28,NNE,29,3.0,3.0,93,0.00,,,0.00,weatherlink.com 1.10,2013-01-01 18:06:00,
2013-01-01 10:21:00,41.9,38.0,30.27,NNE,24,0.0,2.0,87,0.00,,,0.00,weatherlink.com 1.10,2013-01-01 18:21:00,
2013-01-01 10:36:00,42.8,38.0,30.27,WSW,250,0.0,2.0,84,0.00,,,0.00,weatherlink.com 1.10,2013-01-01 18:36:00,
2013-01-01 10:51:00,44.0,38.0,30.27,WSW,250,1.0,2.0,80,0.00,,,0.00,weatherlink.com 1.10,2013-01-01 18:51:00,
2013-01-01 11:06:00,45.9,39.0,30.27,SW,236,3.0,4.0,78,0.00,,,0.00,weatherlink.com 1.10,2013-01-01 19:06:00,
2013-01-01 11:21:00,47.0,39.0,30.26,West,261,0.0,4.0,75,0.00,,,0.00,weatherlink.com 1.10,2013-01-01 19:21:00,
2013-01-01 11:36:00,47.9,38.0,30.25,WSW,245,0.0,6.0,68,0.00,,,0.00,weatherlink.com 1.10,2013-01-01 19:36:00,
2013-01-01 11:51:00,48.8,38.0,30.25,WSW,238,3.0,3.0,67,0.00,,,0.00,weatherlink.com 1.10,2013-01-01 19:51:00,
2013-01-01 12:06:00,49.7,37.0,30.24,SW,224,0.0,4.0,63,0.00,,,0.00,weatherlink.com 1.10,2013-01-01 20:06:00,
2013-01-01 12:21:00,50.5,40.0,30.24,WNW,302,0.0,2.0,67,0.00,,,0.00,weatherlink.com 1.10,2013-01-01 20:21:00,
2013-01-01 12:36:00,52.3,36.0,30.23,NNE,19,4.0,7.0,55,0.00,,,0.00,weatherlink.com 1.10,2013-01-01 20:36:00,
2013-01-01 12:51:00,53.3,37.0,30.22,North,360,4.0,7.0,54,0.00,,,0.00,weatherlink.com 1.10,2013-01-01 20:51:00,
2013-01-01 13:06:00,53.8,36.0,30.22,NW,320,1.0,5.0,52,0.00,,,0.00,weatherlink.com 1.10,2013-01-01 21:06:00,
2013-01-01 13:21:00,54.5,39.0,30.22,NNE,25,2.0,3.0,56,0.00,,,0.00,weatherlink.com 1.10,2013-01-01 21:21:00,
2013-01-01 13:37:00,55.0,36.0,30.21,SW,235,2.0,3.0,50,0.00,,,0.00,weatherlink.com 1.10,2013-01-01 21:37:00,
2013-01-01 13:52:00,55.6,37.0,30.21,SW,215,1.0,6.0,50,0.00,,,0.00,weatherlink.com 1.10,2013-01-01 21:52:00,
2013-01-01 14:07:00,55.8,35.0,30.21,WSW,242,2.0,5.0,46,0.00,,,0.00,weatherlink.com 1.10,2013-01-01 22:07:00,
2013-01-01 14:22:00,56.6,35.0,30.21,WSW,242,2.0,5.0,44,0.00,,,0.00,weatherlink.com 1.10,2013-01-01 22:22:00,
2013-01-01 14:37:00,56.8,34.0,30.21,SSW,208,3.0,5.0,43,0.00,,,0.00,weatherlink.com 1.10,2013-01-01 22:37:00,
2013-01-01 14:52:00,56.9,33.0,30.21,WSW,246,1.0,3.0,40,0.00,,,0.00,weatherlink.com 1.10,2013-01-01 22:52:00,
2013-01-01 15:07:00,56.6,35.0,30.20,WSW,245,0.0,1.0,45,0.00,,,0.00,weatherlink.com 1.10,2013-01-01 23:07:00,
2013-01-01 15:22:00,56.4,33.0,30.20,SSW,196,0.0,5.0,42,0.00,,,0.00,weatherlink.com 1.10,2013-01-01 23:22:00,
2013-01-01 15:37:00,56.6,35.0,30.20,SW,219,0.0,4.0,44,0.00,,,0.00,weatherlink.com 1.10,2013-01-01 23:37:00,
2013-01-01 15:52:00,56.9,35.0,30.20,SW,219,1.0,3.0,44,0.00,,,0.00,weatherlink.com 1.10,2013-01-01 23:52:00,
2013-01-01 16:07:00,57.6,37.0,30.19,SW,220,2.0,2.0,47,0.00,,,0.00,weatherlink.com 1.10,2013-01-02 00:07:00,
2013-01-01 16:22:00,57.3,37.0,30.19,SSW,210,0.0,1.0,47,0.00,,,0.00,weatherlink.com 1.10,2013-01-02 00:22:00,
2013-01-01 16:37:00,55.4,38.0,30.19,SSW,210,0.0,1.0,53,0.00,,,0.00,weatherlink.com 1.10,2013-01-02 00:37:00,
2013-01-01 16:52:00,51.7,36.0,30.18,WSW,251,0.0,2.0,55,0.00,,,0.00,weatherlink.com 1.10,2013-01-02 00:52:00,
2013-01-01 17:07:00,48.8,37.0,30.19,WSW,250,0.0,2.0,64,0.00,,,0.00,weatherlink.com 1.10,2013-01-02 01:07:00,
2013-01-01 17:22:00,46.1,37.0,30.19,NNW,329,2.0,2.0,71,0.00,,,0.00,weatherlink.com 1.10,2013-01-02 01:22:00,
2013-01-01 17:37:00,44.4,37.0,30.20,NW,309,0.0,2.0,74,0.00,,,0.00,weatherlink.com 1.10,2013-01-02 01:37:00,
2013-01-01 17:52:00,43.7,37.0,30.20,NW,309,1.0,1.0,76,0.00,,,0.00,weatherlink.com 1.10,2013-01-02 01:52:00,
2013-01-01 18:07:00,42.8,36.0,30.20,NNE,14,2.0,2.0,78,0.00,,,0.00,weatherlink.com 1.10,2013-01-02 02:07:00,
2013-01-01 18:22:00,41.9,36.0,30.21,NNE,14,1.0,1.0,80,0.00,,,0.00,weatherlink.com 1.10,2013-01-02 02:22:00,
2013-01-01 18:37:00,40.9,36.0,30.21,NNE,14,0.0,2.0,81,0.00,,,0.00,weatherlink.com 1.10,2013-01-02 02:37:00,
2013-01-01 18:52:00,40.1,36.0,30.22,NNE,14,0.0,1.0,84,0.00,,,0.00,weatherlink.com 1.10,2013-01-02 02:52:00,
2013-01-01 19:07:00,39.0,35.0,30.22,NNE,14,0.0,0.0,86,0.00,,,0.00,weatherlink.com 1.10,2013-01-02 03:07:00,
2013-01-01 19:22:00,38.2,34.0,30.22,NNE,14,1.0,2.0,86,0.00,,,0.00,weatherlink.com 1.10,2013-01-02 03:22:00,
2013-01-01 19:37:00,37.1,34.0,30.23,NNE,14,1.0,2.0,89,0.00,,,0.00,weatherlink.com 1.10,2013-01-02 03:37:00,
2013-01-01 19:52:00,37.0,35.0,30.23,NNE,14,0.0,2.0,92,0.00,,,0.00,weatherlink.com 1.10,2013-01-02 03:52:00,
2013-01-01 20:07:00,37.1,35.0,30.23,NNE,14,3.0,3.0,91,0.00,,,0.00,weatherlink.com 1.10,2013-01-02 04:07:00,
2013-01-01 20:22:00,36.6,34.0,30.23,NNE,14,0.0,1.0,90,0.00,,,0.00,weatherlink.com 1.10,2013-01-02 04:22:00,
2013-01-01 20:37:00,35.5,33.0,30.23,NNE,14,0.0,2.0,91,0.00,,,0.00,weatherlink.com 1.10,2013-01-02 04:37:00,
2013-01-01 20:52:00,35.0,33.0,30.23,NNE,14,0.0,1.0,92,0.00,,,0.00,weatherlink.com 1.10,2013-01-02 04:52:00,
2013-01-01 21:07:00,34.6,33.0,30.23,NNE,14,2.0,2.0,93,0.00,,,0.00,weatherlink.com 1.10,2013-01-02 05:07:00,
2013-01-01 21:22:00,34.4,33.0,30.24,NNE,14,0.0,2.0,94,0.00,,,0.00,weatherlink.com 1.10,2013-01-02 05:22:00,
2013-01-01 21:37:00,34.3,33.0,30.25,NNE,14,0.0,2.0,94,0.00,,,0.00,weatherlink.com 1.10,2013-01-02 05:37:00,
2013-01-01 21:52:00,34.2,33.0,30.25,NNE,14,0.0,1.0,94,0.00,,,0.00,weatherlink.com 1.10,2013-01-02 05:52:00,
2013-01-01 22:07:00,34.0,33.0,30.25,NNE,14,1.0,2.0,94,0.00,,,0.00,weatherlink.com 1.10,2013-01-02 06:07:00,
2013-01-01 22:22:00,33.7,32.0,30.25,NNE,14,0.0,2.0,94,0.00,,,0.00,weatherlink.com 1.10,2013-01-02 06:22:00,
2013-01-01 22:37:00,33.2,32.0,30.25,NNE,14,0.0,2.0,94,0.00,,,0.00,weatherlink.com 1.10,2013-01-02 06:37:00,
2013-01-01 22:52:00,33.1,32.0,30.25,NNE,14,0.0,1.0,95,0.00,,,0.00,weatherlink.com 1.10,2013-01-02 06:52:00,
2013-01-01 23:07:00,33.1,32.0,30.24,NNE,14,1.0,1.0,95,0.00,,,0.00,weatherlink.com 1.10,2013-01-02 07:07:00,
2013-01-01 23:22:00,32.9,32.0,30.24,NNE,14,0.0,0.0,95,0.00,,,0.00,weatherlink.com 1.10,2013-01-02 07:22:00,
2013-01-01 23:37:00,32.4,31.0,30.24,NNE,14,0.0,2.0,95,0.00,,,0.00,weatherlink.com 1.10,2013-01-02 07:37:00,
2013-01-01 23:52:00,32.9,32.0,30.24,NNE,14,0.0,2.0,96,0.00,,,0.00,weatherlink.com 1.10,2013-01-02 07:52:00,